| time (UTC) | temp F | wind direction | speed MPH | gust MPH | rain 1hr in | rain 24hr in | rain mn in | humidity % | barometer mb |
| 20260502151935 | 50 | 264 | 8.0 | 14.0 | 0.00 | 0.00 | 0.00 | 51 | 1031.7 |
| 20260502151432 | 52 | 316 | 5.0 | 15.0 | 0.00 | 0.00 | 0.00 | 46 | 1031.6 |
| 20260502150929 | 50 | 348 | 3.0 | 8.0 | 0.00 | 0.00 | 0.00 | 51 | 1031.7 |
| 20260502150426 | 50 | 301 | 6.0 | 9.0 | 0.00 | 0.00 | 0.00 | 51 | 1031.8 |
| 20260502130312 | 45 | 331 | 4.0 | 7.0 | 0.00 | 0.00 | 0.00 | 70 | 1032.2 |
| 20260502123757 | 44 | 195 | 0.0 | 1.0 | 0.00 | 0.00 | 0.00 | 74 | 1032.1 |
| 20260502123254 | 44 | 259 | 1.0 | 2.0 | 0.00 | 0.00 | 0.00 | 73 | 1032.1 |
| 20260502122751 | 44 | 193 | 1.0 | 2.0 | 0.00 | 0.00 | 0.00 | 73 | 1032.1 |
| 20260502122247 | 44 | 211 | 0.0 | 0.0 | 0.00 | 0.00 | 0.00 | 75 | 1032.2 |
| 20260502121745 | 44 | 172 | 1.0 | 1.0 | 0.00 | 0.00 | 0.00 | 75 | 1032.2 |
| 20260502121243 | 44 | 161 | 0.0 | 1.0 | 0.00 | 0.00 | 0.00 | 76 | 1032.3 |
| 20260502120739 | 44 | 195 | 1.0 | 1.0 | 0.00 | 0.00 | 0.00 | 76 | 1032.2 |
| 20260502120236 | 43 | 265 | 0.0 | 0.0 | 0.00 | 0.00 | 0.00 | 77 | 1032.2 |
| 20260502115734 | 43 | 179 | 0.0 | 1.0 | 0.00 | 0.00 | 0.00 | 76 | 1032.1 |
| 20260502115230 | 43 | 234 | 0.0 | 0.0 | 0.00 | 0.00 | 0.00 | 76 | 1032.3 |
| 20260502114726 | 42 | 234 | 0.0 | 1.0 | 0.00 | 0.00 | 0.00 | 77 | 1032.0 |
| 20260502114224 | 42 | 229 | 0.0 | 1.0 | 0.00 | 0.00 | 0.00 | 77 | 1032.2 |
| 20260502113721 | 42 | 268 | 0.0 | 0.0 | 0.00 | 0.00 | 0.00 | 79 | 1032.0 |
| 20260502113219 | 42 | 268 | 0.0 | 0.0 | 0.00 | 0.00 | 0.00 | 80 | 1032.0 |
| 20260502112716 | 42 | 268 | 0.0 | 0.0 | 0.00 | 0.00 | 0.00 | 79 | 1032.0 |
| 20260502112214 | 41 | 268 | 0.0 | 0.0 | 0.00 | 0.00 | 0.00 | 79 | 1031.9 |
| 20260502111711 | 41 | 268 | 0.0 | 0.0 | 0.00 | 0.00 | 0.00 | 80 | 1031.9 |
| 20260502111208 | 41 | 268 | 0.0 | 0.0 | 0.00 | 0.00 | 0.00 | 80 | 1031.9 |
| 20260502110706 | 41 | 268 | 0.0 | 1.0 | 0.00 | 0.00 | 0.00 | 80 | 1031.7 |
| 20260502110203 | 40 | 267 | 1.0 | 1.0 | 0.00 | 0.00 | 0.00 | 80 | 1032.0 |
| 20260502105701 | 40 | 270 | 0.0 | 1.0 | 0.00 | 0.00 | 0.00 | 80 | 1031.6 |
| 20260502105157 | 40 | 307 | 0.0 | 1.0 | 0.00 | 0.00 | 0.00 | 80 | 1032.0 |
| 20260502104654 | 40 | 304 | 1.0 | 2.0 | 0.00 | 0.00 | 0.00 | 80 | 1031.7 |
| 20260502104152 | 40 | 315 | 2.0 | 2.0 | 0.00 | 0.00 | 0.00 | 79 | 1031.7 |
| 20260502103649 | 40 | 331 | 2.0 | 2.0 | 0.00 | 0.00 | 0.00 | 79 | 1031.8 |
| 20260502103147 | 40 | 297 | 1.0 | 2.0 | 0.00 | 0.00 | 0.00 | 80 | 1031.8 |
| 20260502102644 | 40 | 278 | 0.0 | 1.0 | 0.00 | 0.00 | 0.00 | 80 | 1031.9 |
| 20260502102141 | 41 | 302 | 0.0 | 0.0 | 0.00 | 0.00 | 0.00 | 79 | 1031.8 |
| 20260502101638 | 41 | 301 | 0.0 | 1.0 | 0.00 | 0.00 | 0.00 | 79 | 1032.0 |
| 20260502101137 | 41 | 315 | 1.0 | 2.0 | 0.00 | 0.00 | 0.00 | 78 | 1031.9 |
| 20260502100635 | 41 | 314 | 0.0 | 0.0 | 0.00 | 0.00 | 0.00 | 78 | 1032.2 |
| 20260502100133 | 41 | 321 | 1.0 | 2.0 | 0.00 | 0.00 | 0.00 | 78 | 1032.1 |
| 20260502091107 | 43 | 351 | 4.0 | 7.0 | 0.00 | 0.00 | 0.00 | 73 | 1031.9 |
| 20260502090604 | 43 | 343 | 4.0 | 4.0 | 0.00 | 0.00 | 0.00 | 73 | 1032.0 |
| 20260502071458 | 46 | 347 | 3.0 | 7.0 | 0.00 | 0.00 | 0.00 | 62 | 1031.5 |
| 20260502070956 | 46 | 341 | 2.0 | 2.0 | 0.00 | 0.00 | 0.00 | 62 | 1031.5 |
| 20260502070454 | 46 | 345 | 5.0 | 7.0 | 0.00 | 0.00 | 0.00 | 62 | 1031.6 |
| 20260502065952 | 46 | 352 | 2.0 | 3.0 | 0.00 | 0.00 | 0.00 | 63 | 1031.7 |
| 20260502065450 | 46 | 335 | 3.0 | 4.0 | 0.00 | 0.00 | 0.00 | 62 | 1031.8 |
| 20260502064948 | 46 | 333 | 2.0 | 4.0 | 0.00 | 0.00 | 0.00 | 61 | 1031.5 |
| 20260502064446 | 46 | 325 | 3.0 | 8.0 | 0.00 | 0.00 | 0.00 | 60 | 1031.7 |
| 20260502063942 | 47 | 319 | 2.0 | 4.0 | 0.00 | 0.00 | 0.00 | 60 | 1031.7 |
| 20260502063440 | 47 | 311 | 6.0 | 9.0 | 0.00 | 0.00 | 0.00 | 59 | 1031.7 |
| 20260502062938 | 47 | 354 | 9.0 | 10.0 | 0.00 | 0.00 | 0.00 | 59 | 1031.5 |
| 20260502062435 | 47 | 346 | 7.0 | 15.0 | 0.00 | 0.00 | 0.00 | 59 | 1031.7 |
| 20260502061933 | 47 | 334 | 9.0 | 13.0 | 0.00 | 0.00 | 0.00 | 62 | 1031.9 |
| 20260502061431 | 47 | 334 | 4.0 | 9.0 | 0.00 | 0.00 | 0.00 | 66 | 1031.8 |
| 20260502060927 | 47 | 307 | 6.0 | 8.0 | 0.00 | 0.00 | 0.00 | 69 | 1031.9 |
| 20260502060422 | 47 | 355 | 10.0 | 11.0 | 0.00 | 0.00 | 0.00 | 69 | 1031.8 |
| 20260502055919 | 47 | 352 | 5.0 | 7.0 | 0.00 | 0.00 | 0.00 | 70 | 1031.9 |
| 20260502055417 | 47 | 333 | 8.0 | 10.0 | 0.00 | 0.00 | 0.00 | 70 | 1031.8 |
| 20260502054917 | 47 | 355 | 6.0 | 11.0 | 0.00 | 0.00 | 0.00 | 70 | 1032.0 |
| 20260502054414 | 48 | 326 | 8.0 | 11.0 | 0.00 | 0.00 | 0.00 | 70 | 1031.8 |
| 20260502053912 | 48 | 351 | 7.0 | 8.0 | 0.00 | 0.00 | 0.00 | 71 | 1031.8 |
| 20260502053408 | 48 | 308 | 6.0 | 13.0 | 0.00 | 0.00 | 0.00 | 71 | 1031.9 |
| 20260502052906 | 48 | 339 | 5.0 | 6.0 | 0.00 | 0.00 | 0.00 | 74 | 1031.9 |
| 20260502052404 | 48 | 335 | 3.0 | 6.0 | 0.00 | 0.00 | 0.00 | 74 | 1032.0 |
| 20260502051901 | 48 | 345 | 6.0 | 8.0 | 0.00 | 0.00 | 0.00 | 73 | 1031.8 |
| 20260502051400 | 49 | 11 | 4.0 | 4.0 | 0.00 | 0.00 | 0.00 | 73 | 1031.7 |
| 20260502050856 | 49 | 304 | 4.0 | 7.0 | 0.00 | 0.00 | 0.00 | 73 | 1031.7 |
| 20260502050353 | 49 | 33 | 1.0 | 2.0 | 0.00 | 0.00 | 0.00 | 72 | 1031.8 |
| 20260502045850 | 49 | 22 | 5.0 | 7.0 | 0.00 | 0.00 | 0.00 | 72 | 1031.7 |
| 20260502045346 | 49 | 349 | 1.0 | 3.0 | 0.00 | 0.00 | 0.00 | 72 | 1031.9 |
| 20260502044844 | 49 | 320 | 2.0 | 6.0 | 0.00 | 0.00 | 0.00 | 72 | 1031.9 |
| 20260502044339 | 49 | 338 | 3.0 | 6.0 | 0.00 | 0.00 | 0.00 | 71 | 1031.9 |
| 20260502043837 | 49 | 324 | 3.0 | 3.0 | 0.00 | 0.00 | 0.00 | 71 | 1032.0 |
| 20260502043335 | 49 | 324 | 4.0 | 7.0 | 0.00 | 0.00 | 0.00 | 71 | 1032.0 |
| 20260502042834 | 49 | 345 | 1.0 | 7.0 | 0.00 | 0.00 | 0.00 | 70 | 1032.0 |
| 20260502042331 | 49 | 345 | 2.0 | 8.0 | 0.00 | 0.00 | 0.00 | 70 | 1031.6 |
| 20260502041829 | 49 | 352 | 6.0 | 8.0 | 0.00 | 0.00 | 0.00 | 70 | 1031.9 |
| 20260502041326 | 49 | 316 | 1.0 | 3.0 | 0.00 | 0.00 | 0.00 | 69 | 1031.8 |
| 20260502040823 | 49 | 327 | 4.0 | 7.0 | 0.00 | 0.00 | 0.00 | 69 | 1031.9 |
| 20260502040320 | 49 | 319 | 3.0 | 7.0 | 0.00 | 0.00 | 0.00 | 69 | 1031.9 |
| 20260502035816 | 49 | 320 | 4.0 | 7.0 | 0.00 | 0.00 | 0.00 | 69 | 1031.9 |
| 20260502035313 | 49 | 318 | 5.0 | 7.0 | 0.00 | 0.00 | 0.00 | 68 | 1031.7 |
| 20260502034810 | 49 | 347 | 4.0 | 4.0 | 0.00 | 0.00 | 0.00 | 68 | 1031.8 |
| 20260502034308 | 50 | 1 | 5.0 | 8.0 | 0.00 | 0.00 | 0.00 | 68 | 1032.1 |
| 20260502033806 | 50 | 42 | 3.0 | 3.0 | 0.00 | 0.00 | 0.00 | 67 | 1032.1 |
| 20260502033303 | 50 | 348 | 3.0 | 6.0 | 0.00 | 0.00 | 0.00 | 67 | 1032.2 |
| 20260502032800 | 50 | 66 | 3.0 | 7.0 | 0.00 | 0.00 | 0.00 | 68 | 1031.9 |
| 20260502032256 | 50 | 328 | 3.0 | 4.0 | 0.00 | 0.00 | 0.00 | 68 | 1032.1 |
| 20260502031754 | 50 | 34 | 3.0 | 6.0 | 0.00 | 0.00 | 0.00 | 68 | 1031.7 |
| 20260502031252 | 50 | 347 | 4.0 | 6.0 | 0.00 | 0.00 | 0.00 | 68 | 1032.0 |
| 20260502030750 | 50 | 319 | 4.0 | 4.0 | 0.00 | 0.00 | 0.00 | 68 | 1032.0 |
| 20260502030248 | 50 | 344 | 4.0 | 8.0 | 0.00 | 0.00 | 0.00 | 67 | 1032.0 |
| 20260502025745 | 50 | 344 | 8.0 | 10.0 | 0.00 | 0.00 | 0.00 | 67 | 1031.8 |
| 20260502025243 | 50 | 320 | 8.0 | 10.0 | 0.00 | 0.00 | 0.00 | 67 | 1031.8 |
| 20260502024741 | 51 | 320 | 5.0 | 10.0 | 0.00 | 0.00 | 0.00 | 67 | 1031.8 |
| 20260502024238 | 51 | 359 | 5.0 | 13.0 | 0.00 | 0.00 | 0.00 | 67 | 1031.8 |
| 20260502023736 | 51 | 0 | 9.0 | 13.0 | 0.00 | 0.00 | 0.00 | 68 | 1031.6 |
| 20260502023233 | 51 | 315 | 9.0 | 11.0 | 0.00 | 0.00 | 0.00 | 67 | 1031.3 |
| 20260502022731 | 51 | 7 | 4.0 | 14.0 | 0.00 | 0.00 | 0.00 | 68 | 1031.4 |
| 20260502022227 | 51 | 3 | 3.0 | 8.0 | 0.00 | 0.00 | 0.00 | 69 | 1031.3 |
| 20260502021724 | 51 | 355 | 6.0 | 8.0 | 0.00 | 0.00 | 0.00 | 69 | 1031.2 |
| 20260502021222 | 51 | 340 | 9.0 | 10.0 | 0.00 | 0.00 | 0.00 | 69 | 1031.3 |
| 20260502020719 | 52 | 333 | 8.0 | 9.0 | 0.00 | 0.00 | 0.00 | 69 | 1031.2 |
| 20260502020216 | 52 | 295 | 1.0 | 3.0 | 0.00 | 0.00 | 0.00 | 70 | 1030.9 |
| 20260502015714 | 52 | 1 | 3.0 | 6.0 | 0.00 | 0.00 | 0.00 | 70 | 1030.7 |
| 20260502015209 | 52 | 335 | 4.0 | 15.0 | 0.00 | 0.00 | 0.00 | 70 | 1030.5 |
| 20260502014708 | 52 | 40 | 5.0 | 8.0 | 0.00 | 0.00 | 0.00 | 70 | 1030.4 |
| 20260502014204 | 52 | 0 | 4.0 | 8.0 | 0.00 | 0.00 | 0.00 | 70 | 1030.3 |
| 20260502013700 | 52 | 335 | 4.0 | 7.0 | 0.00 | 0.00 | 0.00 | 70 | 1030.3 |
| 20260502013155 | 52 | 10 | 6.0 | 11.0 | 0.00 | 0.00 | 0.00 | 70 | 1030.1 |
| 20260502012653 | 52 | 295 | 4.0 | 8.0 | 0.00 | 0.00 | 0.00 | 70 | 1030.1 |
| 20260502012151 | 53 | 347 | 3.0 | 6.0 | 0.00 | 0.00 | 0.00 | 70 | 1030.3 |
| 20260502011647 | 53 | 339 | 6.0 | 9.0 | 0.00 | 0.00 | 0.00 | 69 | 1029.9 |
| 20260502011143 | 53 | 335 | 2.0 | 9.0 | 0.00 | 0.00 | 0.00 | 69 | 1029.9 |
| 20260502010641 | 53 | 351 | 6.0 | 10.0 | 0.00 | 0.00 | 0.00 | 69 | 1029.8 |
| 20260502010137 | 53 | 3 | 5.0 | 10.0 | 0.00 | 0.00 | 0.00 | 68 | 1030.0 |
| 20260502005635 | 53 | 13 | 6.0 | 8.0 | 0.00 | 0.00 | 0.00 | 67 | 1029.6 |
| 20260502005132 | 53 | 332 | 4.0 | 6.0 | 0.00 | 0.00 | 0.00 | 66 | 1029.6 |
| 20260502004628 | 54 | 340 | 4.0 | 8.0 | 0.00 | 0.00 | 0.00 | 65 | 1029.2 |
| 20260502004125 | 54 | 353 | 4.0 | 9.0 | 0.00 | 0.00 | 0.00 | 64 | 1029.2 |
| 20260502003623 | 54 | 44 | 4.0 | 9.0 | 0.00 | 0.00 | 0.00 | 63 | 1029.0 |
| 20260502003120 | 55 | 20 | 6.0 | 10.0 | 0.00 | 0.00 | 0.00 | 62 | 1028.8 |
| 20260502002616 | 55 | 330 | 12.0 | 16.0 | 0.00 | 0.00 | 0.00 | 61 | 1028.6 |
| 20260502002114 | 55 | 333 | 5.0 | 13.0 | 0.00 | 0.00 | 0.00 | 61 | 1028.5 |
| 20260502001611 | 56 | 321 | 13.0 | 19.0 | 0.00 | 0.00 | 0.00 | 59 | 1028.2 |
| 20260502001108 | 56 | 333 | 9.0 | 14.0 | 0.00 | 0.00 | 0.00 | 57 | 1028.2 |
| 20260502000606 | 57 | 9 | 5.0 | 17.0 | 0.00 | 0.00 | 0.00 | 56 | 1028.1 |
| 20260501235559 | 59 | 339 | 15.0 | 17.0 | 0.00 | 0.00 | 0.00 | 48 | 1027.6 |
| 20260501235055 | 60 | 346 | 10.0 | 17.0 | 0.00 | 0.00 | 0.00 | 44 | 1027.5 |
| 20260501234551 | 63 | 326 | 6.0 | 8.0 | 0.00 | 0.00 | 0.00 | 39 | 1027.1 |
| 20260501234049 | 63 | 309 | 4.0 | 11.0 | 0.00 | 0.00 | 0.00 | 38 | 1027.0 |
| 20260501233547 | 63 | 286 | 2.0 | 8.0 | 0.00 | 0.00 | 0.00 | 37 | 1027.0 |
| 20260501233043 | 64 | 274 | 2.0 | 10.0 | 0.00 | 0.00 | 0.00 | 36 | 1026.8 |
| 20260501232539 | 64 | 227 | 6.0 | 9.0 | 0.00 | 0.00 | 0.00 | 35 | 1026.7 |
| 20260501232037 | 64 | 347 | 6.0 | 10.0 | 0.00 | 0.00 | 0.00 | 35 | 1026.7 |
| 20260501231535 | 65 | 274 | 4.0 | 14.0 | 0.00 | 0.00 | 0.00 | 35 | 1026.8 |
| 20260501231033 | 65 | 297 | 2.0 | 4.0 | 0.00 | 0.00 | 0.00 | 33 | 1026.8 |
| 20260501230531 | 65 | 259 | 4.0 | 8.0 | 0.00 | 0.00 | 0.00 | 32 | 1026.8 |
| 20260501230029 | 65 | 235 | 4.0 | 7.0 | 0.00 | 0.00 | 0.00 | 33 | 1026.6 |
| 20260501225526 | 65 | 181 | 4.0 | 9.0 | 0.00 | 0.00 | 0.00 | 32 | 1026.8 |
| 20260501225022 | 65 | 297 | 5.0 | 8.0 | 0.00 | 0.00 | 0.00 | 33 | 1026.9 |
| 20260501224520 | 65 | 193 | 2.0 | 9.0 | 0.00 | 0.00 | 0.00 | 32 | 1026.8 |
| 20260501224017 | 65 | 293 | 3.0 | 8.0 | 0.00 | 0.00 | 0.00 | 32 | 1026.9 |
| 20260501223513 | 66 | 252 | 2.0 | 9.0 | 0.00 | 0.00 | 0.00 | 31 | 1026.9 |
| 20260501223009 | 66 | 258 | 3.0 | 9.0 | 0.00 | 0.00 | 0.00 | 30 | 1026.8 |
| 20260501222506 | 66 | 277 | 4.0 | 9.0 | 0.00 | 0.00 | 0.00 | 30 | 1026.8 |
| 20260501222002 | 67 | 259 | 4.0 | 11.0 | 0.00 | 0.00 | 0.00 | 30 | 1026.9 |
| 20260501221459 | 67 | 261 | 3.0 | 6.0 | 0.00 | 0.00 | 0.00 | 30 | 1026.8 |
| 20260501220957 | 67 | 290 | 5.0 | 9.0 | 0.00 | 0.00 | 0.00 | 31 | 1026.8 |
| 20260501220454 | 67 | 274 | 7.0 | 13.0 | 0.00 | 0.00 | 0.00 | 30 | 1026.6 |
| 20260501215950 | 67 | 325 | 4.0 | 9.0 | 0.00 | 0.00 | 0.00 | 30 | 1026.7 |
| 20260501215447 | 67 | 260 | 3.0 | 8.0 | 0.00 | 0.00 | 0.00 | 33 | 1026.9 |
| 20260501214942 | 67 | 245 | 3.0 | 10.0 | 0.00 | 0.00 | 0.00 | 31 | 1026.8 |
| 20260501214438 | 67 | 258 | 5.0 | 10.0 | 0.00 | 0.00 | 0.00 | 32 | 1026.8 |
| 20260501213934 | 68 | 282 | 9.0 | 14.0 | 0.00 | 0.00 | 0.00 | 29 | 1027.0 |
| 20260501213431 | 67 | 337 | 5.0 | 9.0 | 0.00 | 0.00 | 0.00 | 32 | 1026.7 |
| 20260501212927 | 67 | 336 | 11.0 | 14.0 | 0.00 | 0.00 | 0.00 | 30 | 1026.4 |
| 20260501212424 | 66 | 300 | 4.0 | 9.0 | 0.00 | 0.00 | 0.00 | 31 | 1026.7 |
| 20260501211920 | 67 | 271 | 8.0 | 10.0 | 0.00 | 0.00 | 0.00 | 30 | 1026.4 |
| 20260501211418 | 67 | 271 | 5.0 | 10.0 | 0.00 | 0.00 | 0.00 | 29 | 1026.7 |
| 20260501210915 | 67 | 275 | 3.0 | 4.0 | 0.00 | 0.00 | 0.00 | 30 | 1026.7 |
| 20260501210412 | 66 | 246 | 2.0 | 8.0 | 0.00 | 0.00 | 0.00 | 31 | 1026.6 |
| 20260501205908 | 67 | 246 | 7.0 | 13.0 | 0.00 | 0.00 | 0.00 | 26 | 1026.6 |
| 20260501205405 | 69 | 229 | 2.0 | 9.0 | 0.00 | 0.00 | 0.00 | 29 | 1026.4 |
| 20260501204902 | 70 | 272 | 2.0 | 3.0 | 0.00 | 0.00 | 0.00 | 30 | 1026.3 |
| 20260501204358 | 67 | 244 | 2.0 | 11.0 | 0.00 | 0.00 | 0.00 | 28 | 1026.7 |
| 20260501203854 | 67 | 278 | 5.0 | 14.0 | 0.00 | 0.00 | 0.00 | 28 | 1026.7 |
| 20260501203352 | 70 | 214 | 1.0 | 4.0 | 0.00 | 0.00 | 0.00 | 28 | 1026.6 |
| 20260501202848 | 71 | 287 | 2.0 | 4.0 | 0.00 | 0.00 | 0.00 | 28 | 1026.4 |
| 20260501202346 | 68 | 295 | 2.0 | 6.0 | 0.00 | 0.00 | 0.00 | 25 | 1026.4 |
| 20260501201842 | 67 | 245 | 2.0 | 8.0 | 0.00 | 0.00 | 0.00 | 25 | 1026.3 |
| 20260501201339 | 68 | 213 | 4.0 | 8.0 | 0.00 | 0.00 | 0.00 | 25 | 1026.4 |
| 20260501200836 | 68 | 267 | 2.0 | 3.0 | 0.00 | 0.00 | 0.00 | 24 | 1026.7 |
| 20260501200333 | 68 | 257 | 4.0 | 6.0 | 0.00 | 0.00 | 0.00 | 27 | 1026.8 |
| 20260501195831 | 68 | 265 | 6.0 | 22.0 | 0.00 | 0.00 | 0.00 | 24 | 1026.6 |
| 20260501195326 | 72 | 219 | 4.0 | 7.0 | 0.00 | 0.00 | 0.00 | 26 | 1026.6 |
| 20260501194822 | 71 | 186 | 4.0 | 4.0 | 0.00 | 0.00 | 0.00 | 23 | 1026.7 |
| 20260501194319 | 68 | 246 | 1.0 | 3.0 | 0.00 | 0.00 | 0.00 | 25 | 1026.8 |
| 20260501193815 | 68 | 256 | 4.0 | 9.0 | 0.00 | 0.00 | 0.00 | 25 | 1026.9 |
| 20260501193314 | 70 | 269 | 2.0 | 7.0 | 0.00 | 0.00 | 0.00 | 26 | 1026.8 |
| 20260501192811 | 70 | 187 | 2.0 | 9.0 | 0.00 | 0.00 | 0.00 | 25 | 1026.9 |
| 20260501192308 | 69 | 244 | 5.0 | 6.0 | 0.00 | 0.00 | 0.00 | 25 | 1026.9 |
| 20260501191805 | 69 | 228 | 6.0 | 15.0 | 0.00 | 0.00 | 0.00 | 23 | 1027.1 |
| 20260501191302 | 69 | 151 | 8.0 | 10.0 | 0.00 | 0.00 | 0.00 | 24 | 1027.2 |
| 20260501190759 | 69 | 269 | 7.0 | 10.0 | 0.00 | 0.00 | 0.00 | 23 | 1027.4 |
| 20260501190254 | 69 | 258 | 11.0 | 18.0 | 0.00 | 0.00 | 0.00 | 23 | 1027.4 |
| 20260501185750 | 68 | 198 | 8.0 | 16.0 | 0.00 | 0.00 | 0.00 | 25 | 1027.3 |
| 20260501185246 | 68 | 206 | 6.0 | 10.0 | 0.00 | 0.00 | 0.00 | 29 | 1027.6 |
| 20260501184742 | 68 | 158 | 11.0 | 15.0 | 0.00 | 0.00 | 0.00 | 29 | 1027.5 |
| 20260501184238 | 67 | 163 | 2.0 | 6.0 | 0.00 | 0.00 | 0.00 | 32 | 1027.6 |
| 20260501183734 | 67 | 179 | 7.0 | 10.0 | 0.00 | 0.00 | 0.00 | 30 | 1027.5 |
| 20260501183231 | 67 | 232 | 5.0 | 9.0 | 0.00 | 0.00 | 0.00 | 32 | 1027.5 |
| 20260501182727 | 67 | 227 | 5.0 | 10.0 | 0.00 | 0.00 | 0.00 | 30 | 1027.8 |
| 20260501182225 | 67 | 73 | 4.0 | 10.0 | 0.00 | 0.00 | 0.00 | 37 | 1028.2 |
| 20260501181721 | 67 | 200 | 2.0 | 2.0 | 0.00 | 0.00 | 0.00 | 39 | 1027.8 |
| 20260501181219 | 66 | 192 | 3.0 | 10.0 | 0.00 | 0.00 | 0.00 | 34 | 1027.8 |
| 20260501180717 | 65 | 184 | 6.0 | 13.0 | 0.00 | 0.00 | 0.00 | 33 | 1028.2 |
| 20260501180212 | 65 | 170 | 6.0 | 10.0 | 0.00 | 0.00 | 0.00 | 39 | 1028.5 |
| 20260501175709 | 65 | 167 | 2.0 | 6.0 | 0.00 | 0.00 | 0.00 | 40 | 1028.4 |
| 20260501175206 | 64 | 151 | 5.0 | 9.0 | 0.00 | 0.00 | 0.00 | 40 | 1028.6 |
| 20260501174702 | 64 | 118 | 3.0 | 8.0 | 0.00 | 0.00 | 0.00 | 41 | 1028.8 |
| 20260501174200 | 64 | 103 | 5.0 | 7.0 | 0.00 | 0.00 | 0.00 | 45 | 1028.7 |
| 20260501173658 | 63 | 69 | 5.0 | 10.0 | 0.00 | 0.00 | 0.00 | 43 | 1028.8 |
| 20260501173155 | 63 | 116 | 4.0 | 9.0 | 0.00 | 0.00 | 0.00 | 43 | 1028.9 |
| 20260501172651 | 63 | 26 | 2.0 | 4.0 | 0.00 | 0.00 | 0.00 | 42 | 1029.0 |
| 20260501172146 | 62 | 217 | 2.0 | 9.0 | 0.00 | 0.00 | 0.00 | 41 | 1029.2 |
| 20260501171642 | 62 | 91 | 2.0 | 9.0 | 0.00 | 0.00 | 0.00 | 43 | 1029.4 |
| 20260501171139 | 64 | 129 | 4.0 | 10.0 | 0.00 | 0.00 | 0.00 | 42 | 1029.2 |
| 20260501170636 | 62 | 119 | 0.0 | 7.0 | 0.00 | 0.00 | 0.00 | 40 | 1029.3 |
| 20260501170133 | 61 | 180 | 4.0 | 13.0 | 0.00 | 0.00 | 0.00 | 40 | 1029.4 |
| 20260501165630 | 61 | 125 | 4.0 | 8.0 | 0.00 | 0.00 | 0.00 | 42 | 1029.6 |
| 20260501165127 | 62 | 182 | 4.0 | 11.0 | 0.00 | 0.00 | 0.00 | 41 | 1029.7 |
| 20260501164626 | 62 | 68 | 5.0 | 11.0 | 0.00 | 0.00 | 0.00 | 42 | 1029.7 |
| 20260501164122 | 61 | 89 | 4.0 | 7.0 | 0.00 | 0.00 | 0.00 | 44 | 1029.6 |
| 20260501163618 | 61 | 139 | 7.0 | 9.0 | 0.00 | 0.00 | 0.00 | 42 | 1029.8 |
| 20260501163116 | 60 | 177 | 9.0 | 15.0 | 0.00 | 0.00 | 0.00 | 41 | 1029.9 |
| 20260501162611 | 60 | 165 | 5.0 | 8.0 | 0.00 | 0.00 | 0.00 | 43 | 1030.0 |
| 20260501162109 | 60 | 217 | 11.0 | 14.0 | 0.00 | 0.00 | 0.00 | 40 | 1030.2 |
| 20260501161606 | 61 | 225 | 3.0 | 7.0 | 0.00 | 0.00 | 0.00 | 45 | 1030.1 |
| 20260501161103 | 61 | 147 | 3.0 | 7.0 | 0.00 | 0.00 | 0.00 | 45 | 1030.3 |
| 20260501160559 | 59 | 287 | 0.0 | 9.0 | 0.00 | 0.00 | 0.00 | 48 | 1030.2 |
| 20260501160056 | 59 | 136 | 6.0 | 7.0 | 0.00 | 0.00 | 0.00 | 43 | 1030.3 |
| 20260501155553 | 58 | 289 | 1.0 | 8.0 | 0.00 | 0.00 | 0.00 | 46 | 1030.4 |